Wind_Speed
30 29 28 29 27 28 29 30 30 31 32 34 34 35 36 33 32 31 30 29 28 25 24 20 20 23 24 25 24 22 20 19 15 14 13 12 12 9 7 6 6 6 7
28 28 29 30 30 27 28 28 26 26 27 30 32 35 36 35 33 32 32 31 30 28 25 23 21 23 26 25 24 22 21 17 16 16 13 12 11 9 7 6 7 7 8
27 28 26 26 26 27 25 25 23 23 24 28 30 31 34 34 33 33 34 35 31 32 28 25 23 24 26 26 24 22 19 18 17 15 12 11 9 9 8 7 8 7 7
25 25 23 26 25 25 26 25 26 25 26 29 32 32 32 32 28 30 31 35 33 31 31 30 27 26 28 25 24 21 19 17 16 13 12 10 10 10 9 8 7 6 5
27 26 28 28 25 25 26 28 28 28 28 30 34 34 34 33 33 29 31 32 36 33 30 33 33 29 28 26 24 20 17 15 14 13 14 15 13 12 10 9 7 6 7
25 25 27 27 26 28 28 29 25 29 31 34 36 37 35 33 27 32 32 34 35 34 32 34 34 30 31 27 23 20 18 18 18 18 19 17 15 13 12 11 8 8 7
25 26 25 24 24 27 29 28 27 27 30 38 40 40 31 33 28 32 35 33 34 34 33 36 36 33 29 25 24 21 16 20 20 18 16 15 14 15 13 10 9 10 9
26 25 24 25 23 23 25 25 25 26 31 34 41 44 42 33 39 34 34 34 32 36 35 36 36 37 34 24 25 24 20 19 21 18 17 17 16 14 14 13 12 11 10
26 23 22 23 23 19 19 22 21 23 24 25 25 40 44 38 42 33 29 34 36 34 35 36 39 39 34 27 26 23 19 21 19 18 19 17 14 11 13 16 15 13 12
28 23 20 20 20 16 15 17 17 17 20 19 22 26 53 42 31 36 32 28 33 38 39 35 36 26 25 30 28 24 21 18 20 20 18 17 15 14 13 14 15 16 13
31 25 20 17 19 17 17 16 18 19 14 14 21 29 36 35 30 34 35 36 38 34 44 46 30 28 32 35 29 24 18 20 20 21 17 16 17 15 13 13 13 14 12
32 29 21 17 19 20 22 17 14 14 13 9 15 25 41 43 38 30 34 33 37 32 29 29 32 31 34 35 30 26 19 20 18 18 18 17 16 15 12 13 13 14 15
23 22 20 18 18 18 19 16 14 12 14 12 12 15 32 34 30 31 32 29 33 34 32 24 29 27 34 37 33 24 20 20 19 18 19 18 17 12 13 12 13 13 15
20 22 22 19 18 19 20 16 14 12 13 17 14 22 22 22 25 22 24 30 27 35 32 32 31 32 38 40 36 26 25 23 21 21 21 18 18 17 15 13 14 14 16
19 21 22 18 18 19 19 16 14 14 11 14 17 23 21 21 22 26 20 30 26 29 37 35 32 37 41 42 38 28 29 27 23 21 21 21 19 21 19 17 16 18 19
18 20 20 18 17 20 17 16 15 16 16 14 15 20 20 20 21 25 25 26 30 26 31 33 38 37 41 43 38 29 32 30 25 23 24 21 19 18 19 19 18 19 18
13 17 18 19 16 16 16 17 17 16 19 19 20 20 22 21 23 28 27 27 30 36 33 30 28 32 33 39 36 32 33 34 28 26 25 25 24 22 21 19 20 19 20
14 15 16 15 17 17 17 19 22 18 17 18 21 22 22 23 27 29 32 37 36 36 34 33 32 30 33 38 39 35 36 39 35 29 29 29 26 24 22 21 21 20 21
15 12 14 15 16 18 18 19 20 24 23 20 21 22 24 25 28 26 33 37 38 36 39 37 35 36 35 38 38 44 40 41 40 34 32 29 25 26 22 22 21 21 23
13 11 11 12 15 16 17 17 17 20 22 23 23 25 26 29 29 24 28 33 36 37 40 36 38 38 43 37 34 39 47 45 45 39 37 32 31 26 22 22 22 22 24
12 10 7 11 13 13 18 17 13 16 17 17 20 20 22 25 29 22 20 25 38 44 44 43 47 38 35 39 36 33 39 37 49 46 39 32 28 24 21 22 21 21 23
10 8 6 8 11 13 14 17 9 8 8 9 11 12 16 25 26 22 25 30 29 39 47 35 37 28 35 35 31 33 27 30 38 32 28 29 24 24 22 20 20 20 22
10 9 6 7 9 11 12 13 7 6 6 6 9 14 17 23 25 14 21 25 31 34 26 28 32 37 38 37 33 27 25 25 27 26 25 23 21 21 21 18 18 20 22
12 11 7 7 8 9 12 12 9 5 4 4 8 13 11 11 12 11 20 29 30 33 35 36 34 36 33 27 24 26 24 26 21 22 20 18 16 19 18 18 21 23 22
15 12 8 5 7 8 9 11 10 7 6 6 5 9 10 9 11 9 11 14 15 21 21 13 16 18 16 13 16 19 18 21 21 20 19 18 13 17 15 16 17 18 20
17 12 8 5 6 7 7 8 10 9 7 8 7 7 11 10 8 10 10 9 5 9 11 11 14 16 17 15 16 15 18 19 22 22 24 25 19 20 18 19 20 20 23
Wind_Direction
293 294 291 284 277 275 274 269 265 262 260 258 257 257 256 252 244 244 239 236 241 243 230 228 237 241 237 227 224 216 211 208 210 218 218 222 230 232 236 247 258 260 265
292 291 287 285 284 278 267 265 264 266 262 261 257 253 253 253 248 241 240 233 234 233 227 227 234 244 229 226 215 209 210 210 213 223 222 224 231 243 247 266 266 266 267
293 292 289 283 273 272 267 261 262 264 264 265 260 257 251 248 248 242 239 230 232 228 227 231 234 240 229 220 212 211 214 216 220 229 228 233 242 248 251 265 270 268 275
293 293 282 272 272 275 270 267 268 269 270 266 260 253 251 250 249 237 234 227 229 228 228 234 231 231 227 220 215 212 213 221 225 225 236 241 248 254 259 262 270 280 295
286 287 277 275 273 273 269 269 275 273 273 271 263 252 244 241 240 241 229 229 230 230 229 225 220 219 222 217 217 215 219 225 229 244 246 242 241 249 256 258 252 264 271
300 292 272 272 274 272 274 274 275 272 272 271 262 243 239 234 231 239 229 228 229 232 224 224 210 215 213 218 216 226 241 253 245 225 230 237 240 246 252 249 251 259 265
292 294 293 285 288 277 279 275 279 273 274 269 262 249 235 224 231 227 225 226 228 221 226 218 219 209 211 211 234 241 237 222 229 228 235 245 248 255 253 250 248 255 261
293 299 298 301 301 286 277 279 276 283 276 272 251 250 208 224 218 216 225 221 229 223 227 216 210 210 210 218 227 221 213 225 231 237 243 249 251 262 265 258 249 250 258
288 300 304 307 302 293 276 273 279 286 274 268 250 232 213 186 210 205 211 217 218 219 216 217 214 219 210 214 213 214 224 231 240 244 247 252 259 262 270 268 261 256 260
289 296 303 307 299 302 300 293 307 287 291 266 272 244 208 212 216 206 207 225 219 226 221 225 215 211 211 213 211 220 224 235 245 246 247 250 249 263 267 273 262 262 268
290 291 302 300 293 296 307 307 320 301 281 280 262 223 193 180 204 212 207 212 222 238 231 230 214 214 220 223 233 223 226 240 252 246 247 255 259 263 267 275 258 259 266
294 293 291 290 291 291 298 306 310 308 279 239 229 222 216 211 219 211 210 218 224 223 229 232 239 223 231 233 226 219 230 246 251 249 251 257 263 260 257 262 256 256 259
287 287 282 290 284 290 291 294 302 308 277 230 228 190 162 181 194 218 220 231 227 222 225 231 227 236 230 232 230 225 234 248 244 248 257 261 245 254 274 281 270 261 259
299 294 290 293 286 287 285 286 286 288 290 254 225 209 192 188 209 226 219 220 224 225 223 226 229 233 233 235 240 225 235 245 248 249 260 260 256 266 273 275 269 267 259
300 294 294 298 291 292 281 273 271 270 267 274 251 236 239 237 215 204 206 215 218 222 223 226 227 240 238 235 240 224 235 240 251 255 262 262 268 273 282 281 274 267 263
300 297 292 301 294 291 275 272 273 262 254 249 256 254 246 242 241 237 239 224 226 226 220 225 233 237 244 237 241 229 238 245 255 257 262 267 272 280 284 273 281 266 257
293 290 295 296 305 289 284 271 268 266 255 252 250 239 245 248 253 243 243 229 232 233 223 220 227 236 239 239 242 235 241 252 248 249 262 260 266 275 280 276 273 260 251
290 287 294 302 305 296 290 282 280 264 251 256 261 257 248 244 246 250 249 240 237 227 220 225 226 234 239 244 247 242 241 250 251 251 258 264 267 271 272 270 265 257 246
286 286 300 306 314 305 297 295 283 278 270 258 262 265 259 250 247 249 259 251 238 235 225 231 234 238 240 250 255 249 242 248 250 251 256 261 268 270 264 262 255 245 242
280 283 297 312 324 322 321 314 286 272 268 268 262 258 255 250 247 244 254 247 237 228 221 225 230 234 253 245 278 259 251 248 248 250 252 261 266 265 261 259 252 248 242
287 287 310 330 327 322 330 330 296 282 268 261 261 268 254 249 243 241 256 236 234 226 226 236 247 256 249 244 267 261 260 263 253 252 253 254 256 255 258 257 251 247 241
277 281 307 324 327 330 336 334 307 299 299 280 271 265 265 254 238 244 244 225 232 234 233 243 239 248 257 258 262 267 264 267 255 258 254 251 248 251 247 244 249 250 247
262 262 284 309 318 327 333 332 352 331 320 296 280 261 262 223 227 221 218 220 245 239 240 251 248 248 248 244 246 243 250 253 244 245 238 238 246 246 245 249 245 246 249
259 266 273 294 308 319 325 323 332 7 3 323 259 242 272 230 218 226 230 216 227 234 244 248 247 244 240 235 230 237 243 241 239 237 243 244 253 243 232 223 237 248 250
264 258 264 276 293 311 322 320 322 335 337 342 343 283 237 247 201 175 179 186 205 214 201 202 206 205 211 213 230 235 234 227 238 242 241 244 246 232 230 239 240 245 253
259 245 238 256 286 308 322 314 320 326 338 328 319 301 257 242 202 211 205 226 228 228 219 234 234 221 213 214 216 221 228 230 232 236 245 244 237 232 239 252 254 258 268
Height
5821 5821 5820 5818 5819 5817 5816 5816 5816 5816 5816 5817 5818 5818 5820 5822 5825 5827 5829 5831 5834 5837 5839 5841 5842 5843 5845 5846 5848 5849 5851 5852 5853 5855 5853 5854 5856 5856 5856 5856 5856 5856 5856
5817 5815 5814 5813 5811 5812 5810 5810 5811 5811 5811 5811 5811 5812 5813 5815 5819 5822 5824 5827 5829 5832 5835 5837 5839 5840 5842 5844 5846 5846 5848 5849 5850 5852 5852 5852 5854 5854 5854 5854 5854 5854 5854
5811 5810 5809 5807 5805 5804 5805 5805 5805 5806 5806 5805 5805 5806 5807 5809 5812 5815 5818 5822 5825 5827 5831 5833 5835 5838 5840 5841 5842 5844 5846 5847 5847 5849 5850 5851 5852 5852 5851 5852 5853 5852 5852
5807 5805 5804 5801 5801 5801 5800 5800 5800 5801 5801 5800 5799 5800 5800 5804 5807 5810 5813 5816 5820 5822 5825 5829 5831 5835 5837 5838 5840 5841 5842 5844 5846 5847 5848 5849 5850 5850 5850 5850 5851 5851 5851
5803 5802 5799 5796 5796 5795 5795 5795 5795 5795 5794 5792 5793 5793 5795 5797 5802 5805 5807 5810 5814 5818 5821 5823 5827 5830 5834 5836 5837 5838 5841 5842 5844 5844 5847 5848 5848 5848 5848 5848 5849 5848 5848
5797 5795 5794 5792 5791 5790 5789 5788 5789 5788 5787 5785 5785 5783 5786 5791 5796 5800 5803 5805 5809 5814 5816 5819 5822 5826 5829 5832 5835 5836 5837 5840 5841 5841 5843 5845 5845 5845 5845 5846 5845 5846 5847
5792 5790 5787 5786 5786 5784 5782 5782 5781 5781 5780 5780 5781 5781 5782 5778 5789 5793 5798 5802 5806 5810 5813 5815 5818 5821 5826 5827 5831 5833 5834 5836 5838 5838 5840 5842 5842 5843 5843 5843 5843 5844 5844
5787 5784 5782 5781 5779 5777 5776 5776 5774 5775 5771 5771 5774 5774 5770 5775 5783 5786 5793 5798 5802 5806 5809 5811 5814 5817 5821 5822 5826 5829 5833 5832 5834 5836 5837 5839 5840 5841 5840 5840 5840 5841 5842
5783 5780 5777 5775 5773 5772 5771 5770 5768 5765 5765 5762 5764 5769 5765 5765 5773 5780 5787 5791 5796 5801 5805 5807 5810 5813 5816 5819 5821 5826 5830 5829 5832 5833 5835 5837 5837 5837 5837 5837 5839 5839 5840
5776 5776 5774 5771 5768 5767 5765 5765 5762 5759 5757 5756 5754 5755 5761 5769 5772 5776 5782 5784 5791 5795 5800 5803 5806 5809 5813 5815 5817 5824 5826 5828 5827 5831 5832 5833 5833 5833 5833 5834 5835 5837 5838
5770 5770 5770 5767 5765 5763 5762 5761 5757 5755 5754 5751 5750 5753 5761 5765 5769 5773 5777 5783 5786 5789 5794 5798 5800 5805 5809 5810 5815 5822 5824 5822 5826 5827 5828 5829 5829 5829 5830 5831 5832 5834 5835
5765 5765 5765 5763 5761 5760 5758 5756 5754 5753 5751 5754 5753 5751 5750 5760 5767 5770 5775 5778 5782 5786 5790 5794 5798 5802 5805 5807 5811 5815 5819 5819 5822 5823 5824 5825 5826 5827 5827 5828 5829 5831 5831
5764 5761 5760 5759 5757 5755 5755 5753 5752 5749 5750 5752 5748 5748 5741 5757 5763 5768 5771 5773 5777 5782 5785 5790 5794 5798 5801 5803 5806 5811 5814 5816 5819 5819 5820 5822 5823 5825 5826 5826 5827 5827 5828
5760 5757 5754 5753 5753 5751 5750 5749 5748 5747 5747 5750 5752 5749 5751 5755 5760 5762 5767 5770 5772 5776 5781 5785 5789 5793 5795 5798 5801 5808 5809 5812 5814 5816 5817 5819 5821 5822 5822 5822 5822 5822 5823
5756 5753 5750 5749 5748 5747 5745 5745 5746 5746 5746 5747 5750 5750 5749 5753 5757 5760 5763 5766 5768 5772 5776 5781 5784 5787 5790 5794 5796 5806 5804 5807 5810 5812 5814 5815 5817 5817 5818 5818 5818 5818 5819
5752 5748 5747 5746 5745 5744 5742 5741 5741 5742 5743 5744 5744 5747 5748 5751 5754 5755 5758 5763 5765 5767 5772 5776 5779 5782 5787 5788 5791 5802 5800 5803 5806 5808 5810 5811 5813 5813 5813 5814 5814 5815 5815
5750 5746 5743 5741 5740 5739 5738 5738 5738 5738 5739 5740 5742 5744 5746 5748 5750 5752 5754 5758 5760 5761 5767 5770 5773 5777 5782 5783 5788 5796 5797 5797 5800 5802 5804 5806 5807 5807 5808 5809 5809 5810 5810
5747 5742 5739 5738 5736 5735 5734 5733 5731 5734 5736 5736 5735 5738 5740 5742 5743 5746 5748 5752 5753 5754 5761 5766 5769 5773 5779 5779 5782 5788 5790 5791 5794 5796 5798 5801 5801 5801 5801 5802 5803 5804 5804
5742 5739 5735 5734 5733 5732 5730 5730 5729 5726 5727 5729 5730 5732 5735 5735 5735 5737 5741 5742 5745 5748 5756 5760 5765 5768 5772 5774 5776 5779 5785 5785 5787 5791 5793 5794 5795 5795 5795 5795 5796 5797 5798
5738 5736 5732 5731 5729 5728 5726 5724 5722 5722 5722 5723 5725 5726 5728 5728 5729 5731 5733 5736 5740 5744 5751 5754 5759 5763 5766 5768 5770 5771 5775 5780 5778 5782 5785 5787 5788 5789 5789 5789 5789 5790 5792
5734 5732 5729 5727 5727 5726 5723 5720 5718 5716 5717 5718 5719 5720 5721 5721 5723 5726 5728 5732 5735 5738 5745 5748 5751 5756 5759 5761 5763 5764 5767 5769 5773 5775 5777 5780 5781 5783 5783 5783 5784 5785 5787
5730 5728 5727 5726 5725 5723 5722 5718 5716 5714 5714 5715 5715 5715 5716 5716 5717 5721 5725 5728 5731 5735 5739 5743 5745 5749 5753 5754 5755 5758 5759 5761 5766 5769 5772 5772 5773 5775 5777 5777 5778 5780 5782
5727 5726 5724 5723 5722 5720 5720 5717 5715 5713 5712 5714 5715 5713 5714 5712 5714 5714 5720 5724 5726 5730 5732 5735 5739 5742 5745 5746 5748 5751 5752 5757 5758 5761 5763 5766 5767 5769 5769 5769 5772 5775 5777
5723 5723 5721 5720 5720 5718 5717 5715 5713 5712 5711 5712 5712 5712 5711 5708 5710 5711 5715 5718 5722 5725 5727 5730 5732 5735 5737 5739 5741 5744 5746 5750 5753 5755 5757 5759 5761 5763 5764 5766 5767 5769 5771
5719 5721 5718 5718 5717 5716 5715 5714 5712 5710 5709 5708 5707 5706 5707 5707 5708 5710 5713 5716 5718 5720 5723 5726 5729 5731 5733 5736 5736 5739 5741 5745 5748 5750 5752 5753 5756 5757 5758 5759 5761 5764 5766
5716 5717 5715 5715 5715 5713 5712 5712 5710 5709 5707 5706 5705 5704 5703 5706 5707 5709 5711 5714 5716 5719 5719 5722 5726 5727 5728 5729 5731 5734 5736 5739 5741 5743 5745 5747 5750 5752 5752 5754 5756 5757 5758